When you browse on this site, cookies collect data to enhance your experience and personalize the content and advertising you see.
Visit our Privacy Policy to learn more. By continuing to use the site, you agree to this use of cookies and data.
  • In Spain
  • List of Countries
  • For 7 days
  • Water Temperature
  • Satellite Maps
  • Weather Map
  • Weather Widgets
  • user-avatar
    Login

    Hourly Weather Bhopal

    Today, 18 February, Monday

    Time Temperature Precipitation Wind Pressure Humidity
    00:00 +17°C° 0 mm 0 mps 715 mmHg 25%
    01:00 +19°C° 0 mm 1 mps 715 mmHg 25%
    02:00 +18°C° 0 mm 1 mps 715 mmHg 25%
    03:00 +18°C° 0 mm 1 mps 714 mmHg 25%
    04:00 +16°C° 0 mm 0 mps 714 mmHg 25%
    05:00 +16°C° 0 mm 0 mps 714 mmHg 28%
    06:00 +19°C° 0 mm 1 mps 715 mmHg 27%
    07:00 +20°C° 0 mm 1 mps 715 mmHg 26%
    08:00 +21°C° 0 mm 1 mps 716 mmHg 25%
    09:00 +24°C° 0 mm 2 mps 716 mmHg 23%
    10:00 +26°C° 0 mm 3 mps 717 mmHg 20%
    11:00 +29°C° 0 mm 3 mps 717 mmHg 17%
    12:00 +30°C° 0 mm 3 mps 717 mmHg 17%
    13:00 +31°C° 0 mm 3 mps 716 mmHg 16%
    14:00 +33°C° 0 mm 3 mps 715 mmHg 16%
    15:00 +33°C° 0 mm 3 mps 715 mmHg 17%
    16:00 +31°C° 0 mm 3 mps 714 mmHg 19%
    17:00 +29°C° 0 mm 2 mps 714 mmHg 23%
    18:00 +28°C° 0 mm 2 mps 714 mmHg 24%
    19:00 +26°C° 0 mm 2 mps 714 mmHg 26%
    20:00 +25°C° 0 mm 2 mps 714 mmHg 27%
    21:00 +24°C° 0 mm 2 mps 714 mmHg 28%
    22:00 +24°C° 0 mm 2 mps 714 mmHg 28%
    23:00 +23°C° 0 mm 2 mps 714 mmHg 29%

    Tomorrow, 19 February, Tuesday

    Time Temperature Precipitation Wind Pressure Humidity
    00:00 +23°C° 0 mm 2 mps 714 mmHg 29%
    01:00 +21°C° 0 mm 2 mps 714 mmHg 29%
    02:00 +21°C° 0 mm 2 mps 714 mmHg 29%
    03:00 +20°C° 0 mm 2 mps 714 mmHg 28%
    04:00 +20°C° 0 mm 2 mps 714 mmHg 28%
    05:00 +19°C° 0 mm 2 mps 714 mmHg 27%
    06:00 +20°C° 0 mm 2 mps 715 mmHg 27%
    07:00 +21°C° 0 mm 2 mps 716 mmHg 27%
    08:00 +23°C° 0 mm 2 mps 717 mmHg 27%
    09:00 +25°C° 0 mm 2 mps 717 mmHg 25%
    10:00 +27°C° 0 mm 2 mps 718 mmHg 22%
    11:00 +30°C° 0 mm 2 mps 718 mmHg 20%
    12:00 +31°C° 0 mm 2 mps 718 mmHg 19%
    13:00 +32°C° 0 mm 2 mps 717 mmHg 17%
    14:00 +33°C° 0 mm 1 mps 716 mmHg 16%
    15:00 +32°C° 0 mm 1 mps 716 mmHg 17%
    16:00 +32°C° 0 mm 1 mps 716 mmHg 18%
    17:00 +32°C° 0 mm 2 mps 716 mmHg 19%
    18:00 +30°C° 0 mm 1 mps 716 mmHg 20%
    19:00 +28°C° 0 mm 1 mps 717 mmHg 21%
    20:00 +26°C° 0 mm 1 mps 717 mmHg 22%
    21:00 +26°C° 0 mm 1 mps 717 mmHg 23%
    22:00 +25°C° 0 mm 1 mps 717 mmHg 23%
    23:00 +24°C° 0 mm 1 mps 717 mmHg 24%

    Day after tomorrow, 20 February, Wednesday

    Time Temperature Precipitation Wind Pressure Humidity
    00:00 +24°C° 0 mm 1 mps 717 mmHg 24%
    01:00 +21°C° 0 mm 0 mps 717 mmHg 25%
    02:00 +21°C° 0 mm 0 mps 716 mmHg 25%
    03:00 +22°C° 0 mm 1 mps 716 mmHg 27%
    04:00 +22°C° 0 mm 1 mps 716 mmHg 28%
    05:00 +20°C° 0 mm 2 mps 716 mmHg 30%
    06:00 +23°C° 0 mm 2 mps 717 mmHg 30%
    07:00 +24°C° 0 mm 2 mps 718 mmHg 30%
    08:00 +25°C° 0 mm 1 mps 719 mmHg 30%
    09:00 +27°C° 0 mm 2 mps 719 mmHg 26%
    10:00 +30°C° 0 mm 2 mps 719 mmHg 22%
    11:00 +33°C° 0 mm 3 mps 720 mmHg 18%
    12:00 +34°C° 0 mm 3 mps 719 mmHg 17%
    13:00 +35°C° 0 mm 3 mps 718 mmHg 15%
    14:00 +36°C° 0 mm 4 mps 717 mmHg 14%
    15:00 +35°C° 0 mm 3 mps 717 mmHg 16%
    16:00 +35°C° 0 mm 2 mps 717 mmHg 17%
    17:00 +34°C° 0 mm 2 mps 717 mmHg 19%
    18:00 +32°C° 0 mm 2 mps 717 mmHg 20%
    19:00 +30°C° 0 mm 2 mps 717 mmHg 21%
    20:00 +28°C° 0 mm 2 mps 718 mmHg 22%
    21:00 +28°C° 0 mm 2 mps 718 mmHg 23%
    22:00 +27°C° 0 mm 2 mps 718 mmHg 25%
    23:00 +26°C° 0 mm 2 mps 718 mmHg 26%

    21 February, Thursday

    Time Temperature Precipitation Wind Pressure Humidity
    00:00 +25°C° 0.5 mm 2 mps 718 mmHg 31%
    01:00 +25°C° 0.5 mm 2 mps 718 mmHg 36%
    02:00 +24°C° 0.5 mm 2 mps 717 mmHg 41%
    03:00 +24°C° 0 mm 2 mps 717 mmHg 48%
    04:00 +24°C° 0 mm 3 mps 717 mmHg 55%
    05:00 +24°C° 0 mm 3 mps 717 mmHg 62%
    06:00 +25°C° 0 mm 3 mps 718 mmHg 58%
    07:00 +26°C° 0 mm 4 mps 719 mmHg 55%
    08:00 +27°C° 0 mm 4 mps 720 mmHg 51%
    09:00 +30°C° 0 mm 5 mps 720 mmHg 46%
    10:00 +33°C° 0 mm 5 mps 720 mmHg 40%
    11:00 +35°C° 0 mm 5 mps 720 mmHg 35%
    12:00 +36°C° 0 mm 5 mps 719 mmHg 30%
    13:00 +37°C° 0 mm 5 mps 718 mmHg 24%
    14:00 +39°C° 0 mm 5 mps 718 mmHg 19%
    15:00 +37°C° 0 mm 4 mps 717 mmHg 19%
    16:00 +36°C° 0 mm 4 mps 717 mmHg 20%
    17:00 +36°C° 0 mm 3 mps 717 mmHg 20%
    18:00 +34°C° 0 mm 3 mps 717 mmHg 21%
    19:00 +31°C° 0 mm 2 mps 718 mmHg 23%
    20:00 +29°C° 0 mm 2 mps 718 mmHg 25%
    21:00 +29°C° 0 mm 2 mps 718 mmHg 26%
    22:00 +28°C° 0 mm 3 mps 718 mmHg 26%
    23:00 +28°C° 0 mm 3 mps 719 mmHg 27%

    22 February, Friday

    Time Temperature Precipitation Wind Pressure Humidity
    00:00 +28°C° 0 mm 3 mps 718 mmHg 27%
    01:00 +28°C° 0 mm 3 mps 718 mmHg 28%
    02:00 +27°C° 0 mm 3 mps 717 mmHg 29%
    03:00 +27°C° 0 mm 2 mps 717 mmHg 31%
    04:00 +26°C° 0 mm 2 mps 717 mmHg 32%
    05:00 +26°C° 0 mm 1 mps 717 mmHg 34%
    06:00 +26°C° 0 mm 1 mps 718 mmHg 35%
    07:00 +26°C° 0 mm 1 mps 719 mmHg 36%
    08:00 +26°C° 0 mm 1 mps 719 mmHg 37%
    09:00 +27°C° 0 mm 1 mps 719 mmHg 35%
    10:00 +28°C° 0 mm 1 mps 719 mmHg 33%
    11:00 +29°C° 0 mm 2 mps 720 mmHg 31%
    12:00 +30°C° 0 mm 2 mps 719 mmHg 30%
    13:00 +31°C° 0 mm 2 mps 718 mmHg 29%
    14:00 +33°C° 0 mm 3 mps 717 mmHg 28%
    15:00 +31°C° 0 mm 2 mps 717 mmHg 29%
    16:00 +31°C° 0 mm 2 mps 717 mmHg 31%
    17:00 +30°C° 0 mm 2 mps 716 mmHg 33%
    18:00 +29°C° 0 mm 1 mps 717 mmHg 35%
    19:00 +28°C° 0 mm 1 mps 717 mmHg 37%
    20:00 +27°C° 0 mm 1 mps 718 mmHg 39%
    21:00 +26°C° 0 mm 1 mps 717 mmHg 40%
    22:00 +26°C° 0 mm 1 mps 717 mmHg 41%
    23:00 +26°C° 0 mm 1 mps 717 mmHg 42%

    23 February, Saturday

    Time Temperature Precipitation Wind Pressure Humidity
    00:00 +25°C° 0 mm 1 mps 717 mmHg 43%
    01:00 +25°C° 0 mm 1 mps 716 mmHg 45%
    02:00 +24°C° 0 mm 1 mps 716 mmHg 46%
    03:00 +23°C° 0 mm 2 mps 716 mmHg 48%
    04:00 +23°C° 0 mm 2 mps 716 mmHg 49%
    05:00 +21°C° 0 mm 2 mps 716 mmHg 51%
    06:00 +23°C° 0 mm 2 mps 716 mmHg 49%
    07:00 +24°C° 0 mm 2 mps 717 mmHg 47%
    08:00 +25°C° 0 mm 3 mps 718 mmHg 45%
    09:00 +27°C° 0 mm 2 mps 718 mmHg 40%
    10:00 +30°C° 0 mm 2 mps 718 mmHg 35%
    11:00 +32°C° 0 mm 2 mps 718 mmHg 29%
    12:00 +34°C° 0 mm 3 mps 717 mmHg 26%
    13:00 +35°C° 0 mm 3 mps 716 mmHg 23%
    14:00 +36°C° 0 mm 4 mps 716 mmHg 20%
    15:00 +35°C° 0 mm 4 mps 715 mmHg 20%
    16:00 +35°C° 0 mm 3 mps 715 mmHg 21%
    17:00 +34°C° 0 mm 3 mps 715 mmHg 22%
    18:00 +31°C° 0 mm 2 mps 715 mmHg 24%
    19:00 +30°C° 0 mm 2 mps 715 mmHg 25%
    20:00 +28°C° 0 mm 2 mps 715 mmHg 27%
    21:00 +27°C° 0 mm 2 mps 715 mmHg 28%
    22:00 +27°C° 0 mm 2 mps 715 mmHg 30%
    23:00 +26°C° 0 mm 2 mps 715 mmHg 31%
    Show more